Location: Newark
(40.3500°N, 15.2333°E)
Time: 06:15:52
(UTC+00:00)

Vanguard 1 - Pass Details

Date: 26 January 2020
Orbit: 649 x 3834 km, 34.3° (Epoch: 27 February)

Event Time Altitude Azimuth Distance (km) Brightness Sun altitude
Rises 17:54:12 0° 262° (W) 2,960 14.2 -19.9°
Reaches altitude 10° 17:56:22 10° 255° (WSW) 2,105 13.0 -20.4°
Maximum altitude 18:00:44 42° 184° (S) 1,117 10.4 -21.2°
Enters shadow 18:03:14 28° 132° (SE) 1,646 10.8 -21.7°
Drops below altitude 10° 18:06:54 10° 114° (ESE) 2,972 - -22.3°
Sets 18:10:32 0° 109° (ESE) 4,369 - -23.0°
